Year,Month,Day,Hour,Minute,Value (Times are PST for temperature in C)
2010,05,22,00,00,4.10
2010,05,22,00,01,4.10
2010,05,22,00,02,4.10
2010,05,22,00,03,4.00
2010,05,22,00,04,4.00
2010,05,22,00,05,4.00
2010,05,22,00,06,4.00
2010,05,22,00,07,4.00
2010,05,22,00,08,4.00
2010,05,22,00,09,3.90
2010,05,22,00,10,3.90
2010,05,22,00,11,3.90
2010,05,22,00,12,3.90
2010,05,22,00,13,3.90
2010,05,22,00,14,3.90
2010,05,22,00,15,3.90
2010,05,22,00,16,3.90
2010,05,22,00,17,3.90
2010,05,22,00,18,3.80
2010,05,22,00,19,3.80
2010,05,22,00,20,3.80
2010,05,22,00,21,3.80
2010,05,22,00,22,3.80
2010,05,22,00,23,3.80
2010,05,22,00,24,3.80
2010,05,22,00,25,3.80
2010,05,22,00,26,3.80
2010,05,22,00,27,3.80
2010,05,22,00,28,3.80
2010,05,22,00,29,3.80
2010,05,22,00,30,3.80
2010,05,22,00,31,3.80
2010,05,22,00,32,3.80
2010,05,22,00,33,3.80
2010,05,22,00,34,3.80
2010,05,22,00,35,3.70
2010,05,22,00,36,3.70
2010,05,22,00,37,3.70
2010,05,22,00,38,3.70
2010,05,22,00,39,3.70
2010,05,22,00,40,3.70
2010,05,22,00,41,3.60
2010,05,22,00,42,3.60
2010,05,22,00,43,3.60
2010,05,22,00,44,3.60
2010,05,22,00,45,3.60
2010,05,22,00,46,3.60
2010,05,22,00,47,3.60
2010,05,22,00,48,3.60
2010,05,22,00,49,3.60
2010,05,22,00,50,3.60
2010,05,22,00,51,3.50
2010,05,22,00,52,3.50
2010,05,22,00,53,3.50
2010,05,22,00,54,3.50
2010,05,22,00,55,3.50
2010,05,22,00,56,3.50
2010,05,22,00,57,3.50
2010,05,22,00,58,3.50
2010,05,22,00,59,3.50
2010,05,22,01,00,3.50
2010,05,22,01,01,3.50
2010,05,22,01,02,3.50
2010,05,22,01,03,3.50
2010,05,22,01,04,3.50
2010,05,22,01,05,3.50
2010,05,22,01,06,3.50
2010,05,22,01,07,3.50
2010,05,22,01,08,3.50
2010,05,22,01,09,3.50
2010,05,22,01,10,3.50
2010,05,22,01,11,3.50
2010,05,22,01,12,3.50
2010,05,22,01,13,3.50
2010,05,22,01,14,3.50
2010,05,22,01,15,3.50
2010,05,22,01,16,3.50
2010,05,22,01,17,3.50
2010,05,22,01,18,3.50
2010,05,22,01,19,3.40
2010,05,22,01,20,3.40
2010,05,22,01,21,3.40
2010,05,22,01,22,3.40
2010,05,22,01,23,3.40
2010,05,22,01,24,3.40
2010,05,22,01,25,3.40
2010,05,22,01,26,3.40
2010,05,22,01,27,3.40
2010,05,22,01,28,3.40
2010,05,22,01,29,3.40
2010,05,22,01,30,3.30
2010,05,22,01,31,3.30
2010,05,22,01,32,3.30
2010,05,22,01,33,3.30
2010,05,22,01,34,3.30
2010,05,22,01,35,3.30
2010,05,22,01,36,3.30
2010,05,22,01,37,3.30
2010,05,22,01,38,3.30
2010,05,22,01,39,3.30
2010,05,22,01,40,3.20
2010,05,22,01,41,3.20
2010,05,22,01,42,3.20
2010,05,22,01,43,3.20
2010,05,22,01,44,3.20
2010,05,22,01,45,3.20
2010,05,22,01,46,3.20
2010,05,22,01,47,3.30
2010,05,22,01,48,3.30
2010,05,22,01,49,3.30
2010,05,22,01,50,3.30
2010,05,22,01,51,3.30
2010,05,22,01,52,3.30
2010,05,22,01,53,3.30
2010,05,22,01,54,3.30
2010,05,22,01,55,3.30
2010,05,22,01,56,3.30
2010,05,22,01,57,3.30
2010,05,22,01,58,3.30
2010,05,22,01,59,3.30
2010,05,22,02,00,3.30
2010,05,22,02,01,3.30
2010,05,22,02,02,3.30
2010,05,22,02,03,3.30
2010,05,22,02,04,3.30
2010,05,22,02,05,3.30
2010,05,22,02,06,3.30
2010,05,22,02,07,3.30
2010,05,22,02,08,3.30
2010,05,22,02,09,3.30
2010,05,22,02,10,3.20
2010,05,22,02,11,3.20
2010,05,22,02,12,3.20
2010,05,22,02,13,3.20
2010,05,22,02,14,3.10
2010,05,22,02,15,3.10
2010,05,22,02,16,3.10
2010,05,22,02,17,3.10
2010,05,22,02,18,3.10
2010,05,22,02,19,3.10
2010,05,22,02,20,3.00
2010,05,22,02,21,2.90
2010,05,22,02,22,2.90
2010,05,22,02,23,2.90
2010,05,22,02,24,2.90
2010,05,22,02,25,2.90
2010,05,22,02,26,2.90
2010,05,22,02,27,2.90
2010,05,22,02,28,2.90
2010,05,22,02,29,2.90
2010,05,22,02,30,2.90
2010,05,22,02,31,2.90
2010,05,22,02,32,2.90
2010,05,22,02,33,2.80
2010,05,22,02,34,2.80
2010,05,22,02,35,2.80
2010,05,22,02,36,2.80
2010,05,22,02,37,2.80
2010,05,22,02,38,2.80
2010,05,22,02,39,2.80
2010,05,22,02,40,2.80
2010,05,22,02,41,2.80
2010,05,22,02,42,2.80
2010,05,22,02,43,2.80
2010,05,22,02,44,2.80
2010,05,22,02,45,2.80
2010,05,22,02,46,2.80
2010,05,22,02,47,2.80
2010,05,22,02,48,2.80
2010,05,22,02,49,2.80
2010,05,22,02,50,2.80
2010,05,22,02,51,2.80
2010,05,22,02,52,2.80
2010,05,22,02,53,2.80
2010,05,22,02,54,2.80
2010,05,22,02,55,2.80
2010,05,22,02,56,2.80
2010,05,22,02,57,2.80
2010,05,22,02,58,2.90
2010,05,22,02,59,2.90
2010,05,22,03,00,2.90
2010,05,22,03,01,2.90
2010,05,22,03,02,2.90
2010,05,22,03,03,2.90
2010,05,22,03,04,2.90
2010,05,22,03,05,2.90
2010,05,22,03,06,2.90
2010,05,22,03,07,2.90
2010,05,22,03,08,2.90
2010,05,22,03,09,2.90
2010,05,22,03,10,2.90
2010,05,22,03,11,2.90
2010,05,22,03,12,3.00
2010,05,22,03,13,3.10
2010,05,22,03,14,3.10
2010,05,22,03,15,3.10
2010,05,22,03,16,3.10
2010,05,22,03,17,3.10
2010,05,22,03,18,3.10
2010,05,22,03,19,3.10
2010,05,22,03,20,3.10
2010,05,22,03,21,3.10
2010,05,22,03,22,3.10
2010,05,22,03,23,3.10
2010,05,22,03,24,3.20
2010,05,22,03,25,3.20
2010,05,22,03,26,3.20
2010,05,22,03,27,3.20
2010,05,22,03,28,3.20
2010,05,22,03,29,3.20
2010,05,22,03,30,3.20
2010,05,22,03,31,3.20
2010,05,22,03,32,3.20
2010,05,22,03,33,3.30
2010,05,22,03,34,3.30
2010,05,22,03,35,3.30
2010,05,22,03,36,3.30
2010,05,22,03,37,3.30
2010,05,22,03,38,3.30
2010,05,22,03,39,3.30
2010,05,22,03,40,3.30
2010,05,22,03,41,3.30
2010,05,22,03,42,3.30
2010,05,22,03,43,3.30
2010,05,22,03,44,3.30
2010,05,22,03,45,3.30
2010,05,22,03,46,3.30
2010,05,22,03,47,3.30
2010,05,22,03,48,3.30
2010,05,22,03,49,3.40
2010,05,22,03,50,3.40
2010,05,22,03,51,3.40
2010,05,22,03,52,3.40
2010,05,22,03,53,3.40
2010,05,22,03,54,3.40
2010,05,22,03,55,3.40
2010,05,22,03,56,3.50
2010,05,22,03,57,3.50
2010,05,22,03,58,3.50
2010,05,22,03,59,3.50
2010,05,22,04,00,3.50
2010,05,22,04,01,3.50
2010,05,22,04,02,3.50
2010,05,22,04,03,3.50
2010,05,22,04,04,3.50
2010,05,22,04,05,3.50
2010,05,22,04,06,3.40
2010,05,22,04,07,3.40
2010,05,22,04,08,3.40
2010,05,22,04,09,3.40
2010,05,22,04,10,3.40
2010,05,22,04,11,3.30
2010,05,22,04,12,3.30
2010,05,22,04,13,3.30
2010,05,22,04,14,3.30
2010,05,22,04,15,3.30
2010,05,22,04,16,3.30
2010,05,22,04,17,3.30
2010,05,22,04,18,3.30
2010,05,22,04,19,3.30
2010,05,22,04,20,3.30
2010,05,22,04,21,3.20
2010,05,22,04,22,3.20
2010,05,22,04,23,3.20
2010,05,22,04,24,3.20
2010,05,22,04,25,3.20
2010,05,22,04,26,3.10
2010,05,22,04,27,3.10
2010,05,22,04,28,3.10
2010,05,22,04,29,3.10
2010,05,22,04,30,3.10
2010,05,22,04,31,3.10
2010,05,22,04,32,3.10
2010,05,22,04,33,3.10
2010,05,22,04,34,3.10
2010,05,22,04,35,3.10
2010,05,22,04,36,3.10
2010,05,22,04,37,3.10
2010,05,22,04,38,3.10
2010,05,22,04,39,3.10
2010,05,22,04,40,3.10
2010,05,22,04,41,3.10
2010,05,22,04,42,3.10
2010,05,22,04,43,3.10
2010,05,22,04,44,3.10
2010,05,22,04,45,3.10
2010,05,22,04,46,3.10
2010,05,22,04,47,3.10
2010,05,22,04,48,3.10
2010,05,22,04,49,3.10
2010,05,22,04,50,3.10
2010,05,22,04,51,3.10
2010,05,22,04,52,3.10
2010,05,22,04,53,3.10
2010,05,22,04,54,3.10
2010,05,22,04,55,3.10
2010,05,22,04,56,3.10
2010,05,22,04,57,3.10
2010,05,22,04,58,3.10
2010,05,22,04,59,3.10
2010,05,22,05,00,3.10
2010,05,22,05,01,3.10
2010,05,22,05,02,3.10
2010,05,22,05,03,3.10
2010,05,22,05,04,3.10
2010,05,22,05,05,3.10
2010,05,22,05,06,3.10
2010,05,22,05,07,3.10
2010,05,22,05,08,3.10
2010,05,22,05,09,3.10
2010,05,22,05,10,3.10
2010,05,22,05,11,3.10
2010,05,22,05,12,3.10
2010,05,22,05,13,3.10
2010,05,22,05,14,3.10
2010,05,22,05,15,3.10
2010,05,22,05,16,3.10
2010,05,22,05,17,3.10
2010,05,22,05,18,3.10
2010,05,22,05,19,3.10
2010,05,22,05,20,3.10
2010,05,22,05,21,3.10
2010,05,22,05,22,3.10
2010,05,22,05,23,3.20
2010,05,22,05,24,3.20
2010,05,22,05,25,3.20
2010,05,22,05,26,3.20
2010,05,22,05,27,3.20
2010,05,22,05,28,3.20
2010,05,22,05,29,3.30
2010,05,22,05,30,3.30
2010,05,22,05,31,3.30
2010,05,22,05,32,3.30
2010,05,22,05,33,3.30
2010,05,22,05,34,3.30
2010,05,22,05,35,3.30
2010,05,22,05,36,3.30
2010,05,22,05,37,3.30
2010,05,22,05,38,3.30
2010,05,22,05,39,3.30
2010,05,22,05,40,3.30
2010,05,22,05,41,3.30
2010,05,22,05,42,3.30
2010,05,22,05,43,3.30
2010,05,22,05,44,3.30
2010,05,22,05,45,3.30
2010,05,22,05,46,3.30
2010,05,22,05,47,3.30
2010,05,22,05,48,3.30
2010,05,22,05,49,3.30
2010,05,22,05,50,3.30
2010,05,22,05,51,3.40
2010,05,22,05,52,3.40
2010,05,22,05,53,3.40
2010,05,22,05,54,3.40
2010,05,22,05,55,3.50
2010,05,22,05,56,3.50
2010,05,22,05,57,3.50
2010,05,22,05,58,3.50
2010,05,22,05,59,3.50
2010,05,22,06,00,3.60
2010,05,22,06,01,3.60
2010,05,22,06,02,3.60
2010,05,22,06,03,3.60
2010,05,22,06,04,3.70
2010,05,22,06,05,3.70
2010,05,22,06,06,3.70
2010,05,22,06,07,3.80
2010,05,22,06,08,3.80
2010,05,22,06,09,3.80
2010,05,22,06,10,3.80
2010,05,22,06,11,3.80
2010,05,22,06,12,3.80
2010,05,22,06,13,3.80
2010,05,22,06,14,3.80
2010,05,22,06,15,3.80
2010,05,22,06,16,3.80
2010,05,22,06,17,3.80
2010,05,22,06,18,3.80
2010,05,22,06,19,3.80
2010,05,22,06,20,3.80
2010,05,22,06,21,3.80
2010,05,22,06,22,3.80
2010,05,22,06,23,3.80
2010,05,22,06,24,3.80
2010,05,22,06,25,3.90
2010,05,22,06,26,3.90
2010,05,22,06,27,3.90
2010,05,22,06,28,3.90
2010,05,22,06,29,3.90
2010,05,22,06,30,3.90
2010,05,22,06,31,3.90
2010,05,22,06,32,3.90
2010,05,22,06,33,3.90
2010,05,22,06,34,3.90
2010,05,22,06,35,3.90
2010,05,22,06,36,3.90
2010,05,22,06,37,3.90
2010,05,22,06,38,3.90
2010,05,22,06,39,3.90
2010,05,22,06,40,3.90
2010,05,22,06,41,3.90
2010,05,22,06,42,3.90
2010,05,22,06,43,3.90
2010,05,22,06,44,3.90
2010,05,22,06,45,3.90
2010,05,22,06,46,3.90
2010,05,22,06,47,3.80
2010,05,22,06,48,3.90
2010,05,22,06,49,3.90
2010,05,22,06,50,3.90
2010,05,22,06,51,3.80
2010,05,22,06,52,3.80
2010,05,22,06,53,3.80
2010,05,22,06,54,3.80
2010,05,22,06,55,3.80
2010,05,22,06,56,3.80
2010,05,22,06,57,3.80
2010,05,22,06,58,3.80
2010,05,22,06,59,3.80
2010,05,22,07,00,3.80
2010,05,22,07,01,3.80
2010,05,22,07,02,3.80
2010,05,22,07,03,3.80
2010,05,22,07,04,3.80
2010,05,22,07,05,3.90
2010,05,22,07,06,3.90
2010,05,22,07,07,3.90
2010,05,22,07,08,3.90
2010,05,22,07,09,4.00
2010,05,22,07,10,4.00
2010,05,22,07,11,4.00
2010,05,22,07,12,4.00
2010,05,22,07,13,4.10
2010,05,22,07,14,4.10
2010,05,22,07,15,4.10
2010,05,22,07,16,4.20
2010,05,22,07,17,4.20
2010,05,22,07,18,4.20
2010,05,22,07,19,4.20
2010,05,22,07,20,4.20
2010,05,22,07,21,4.30
2010,05,22,07,22,4.30
2010,05,22,07,23,4.30
2010,05,22,07,24,4.30
2010,05,22,07,25,4.40
2010,05,22,07,26,4.40
2010,05,22,07,27,4.40
2010,05,22,07,28,4.50
2010,05,22,07,29,4.50
2010,05,22,07,30,4.50
2010,05,22,07,31,4.50
2010,05,22,07,32,4.60
2010,05,22,07,33,4.60
2010,05,22,07,34,4.60
2010,05,22,07,35,4.60
2010,05,22,07,36,4.70
2010,05,22,07,37,4.80
2010,05,22,07,38,4.90
2010,05,22,07,39,4.90
2010,05,22,07,40,5.10
2010,05,22,07,41,5.10
2010,05,22,07,42,5.20
2010,05,22,07,43,5.20
2010,05,22,07,44,5.30
2010,05,22,07,45,5.30
2010,05,22,07,46,5.30
2010,05,22,07,47,5.40
2010,05,22,07,48,5.40
2010,05,22,07,49,5.50
2010,05,22,07,50,5.50
2010,05,22,07,51,5.60
2010,05,22,07,52,5.60
2010,05,22,07,53,5.70
2010,05,22,07,54,5.70
2010,05,22,07,55,5.70
2010,05,22,07,56,5.80
2010,05,22,07,57,5.80
2010,05,22,07,58,5.90
2010,05,22,07,59,6.00
2010,05,22,08,00,6.00
2010,05,22,08,01,6.10
2010,05,22,08,02,6.20
2010,05,22,08,03,6.30
2010,05,22,08,04,6.40
2010,05,22,08,05,6.50
2010,05,22,08,06,6.60
2010,05,22,08,07,6.70
2010,05,22,08,08,6.80
2010,05,22,08,09,6.80
2010,05,22,08,10,7.00
2010,05,22,08,11,7.10
2010,05,22,08,12,7.30
2010,05,22,08,13,7.40
2010,05,22,08,14,7.50
2010,05,22,08,15,7.60
2010,05,22,08,16,7.80
2010,05,22,08,17,7.90
2010,05,22,08,18,8.00
2010,05,22,08,19,8.10
2010,05,22,08,20,8.30
2010,05,22,08,21,8.40
2010,05,22,08,22,8.50
2010,05,22,08,23,8.60
2010,05,22,08,24,8.70
2010,05,22,08,25,8.80
2010,05,22,08,26,8.90
2010,05,22,08,27,9.00
2010,05,22,08,28,9.10
2010,05,22,08,29,9.20
2010,05,22,08,30,9.40
2010,05,22,08,31,9.40
2010,05,22,08,32,9.50
2010,05,22,08,33,9.60
2010,05,22,08,34,9.70
2010,05,22,08,35,9.70
2010,05,22,08,36,9.80
2010,05,22,08,37,9.90
2010,05,22,08,38,9.90
2010,05,22,08,39,10.10
2010,05,22,08,40,10.10
2010,05,22,08,41,10.20
2010,05,22,08,42,10.20
2010,05,22,08,43,10.30
2010,05,22,08,44,10.30
2010,05,22,08,45,10.40
2010,05,22,08,46,10.40
2010,05,22,08,47,10.40
2010,05,22,08,48,10.60
2010,05,22,08,49,10.60
2010,05,22,08,50,10.60
2010,05,22,08,51,10.70
2010,05,22,08,52,10.80
2010,05,22,08,53,10.90
2010,05,22,08,54,10.90
2010,05,22,08,55,10.90
2010,05,22,08,56,10.90
2010,05,22,08,57,11.00
2010,05,22,08,58,11.10
2010,05,22,08,59,11.10
2010,05,22,09,00,11.10
2010,05,22,09,01,11.10
2010,05,22,09,02,11.10
2010,05,22,09,03,11.20
2010,05,22,09,04,11.20
2010,05,22,09,05,11.20
2010,05,22,09,06,11.30
2010,05,22,09,07,11.40
2010,05,22,09,08,11.40
2010,05,22,09,09,11.40
2010,05,22,09,10,11.40
2010,05,22,09,11,11.50
2010,05,22,09,12,11.60
2010,05,22,09,13,11.60
2010,05,22,09,14,11.60
2010,05,22,09,15,11.60
2010,05,22,09,16,11.60
2010,05,22,09,17,11.60
2010,05,22,09,18,11.70
2010,05,22,09,19,11.80
2010,05,22,09,20,11.80
2010,05,22,09,21,11.80
2010,05,22,09,22,11.90
2010,05,22,09,23,11.90
2010,05,22,09,24,11.90
2010,05,22,09,25,11.90
2010,05,22,09,26,11.90
2010,05,22,09,27,11.80
2010,05,22,09,28,11.90
2010,05,22,09,29,11.90
2010,05,22,09,30,12.00
2010,05,22,09,31,12.00
2010,05,22,09,32,11.90
2010,05,22,09,33,11.90
2010,05,22,09,34,11.80
2010,05,22,09,35,11.80
2010,05,22,09,36,11.80
2010,05,22,09,37,11.60
2010,05,22,09,38,11.50
2010,05,22,09,39,11.40
2010,05,22,09,40,11.40
2010,05,22,09,41,11.40
2010,05,22,09,42,11.30
2010,05,22,09,43,11.30
2010,05,22,09,44,11.30
2010,05,22,09,45,11.30
2010,05,22,09,46,11.20
2010,05,22,09,47,11.20
2010,05,22,09,48,11.20
2010,05,22,09,49,11.20
2010,05,22,09,50,11.30
2010,05,22,09,51,11.30
2010,05,22,09,52,11.30
2010,05,22,09,53,11.40
2010,05,22,09,54,11.40
2010,05,22,09,55,11.40
2010,05,22,09,56,11.40
2010,05,22,09,57,11.40
2010,05,22,09,58,11.40
2010,05,22,09,59,11.50
2010,05,22,10,00,11.60
2010,05,22,10,01,11.60
2010,05,22,10,02,11.60
2010,05,22,10,03,11.60
2010,05,22,10,04,11.50
2010,05,22,10,05,11.40
2010,05,22,10,06,11.40
2010,05,22,10,07,11.50
2010,05,22,10,08,11.60
2010,05,22,10,09,11.60
2010,05,22,10,10,11.70
2010,05,22,10,11,11.80
2010,05,22,10,12,11.80
2010,05,22,10,13,11.90
2010,05,22,10,14,11.90
2010,05,22,10,15,12.00
2010,05,22,10,16,12.10
2010,05,22,10,17,12.30
2010,05,22,10,18,12.40
2010,05,22,10,19,12.40
2010,05,22,10,20,12.50
2010,05,22,10,21,12.50
2010,05,22,10,22,12.50
2010,05,22,10,23,12.50
2010,05,22,10,24,12.50
2010,05,22,10,25,12.40
2010,05,22,10,26,12.30
2010,05,22,10,27,12.20
2010,05,22,10,28,12.10
2010,05,22,10,29,12.10
2010,05,22,10,30,12.20
2010,05,22,10,31,12.20
2010,05,22,10,32,12.30
2010,05,22,10,33,12.40
2010,05,22,10,34,12.50
2010,05,22,10,35,12.60
2010,05,22,10,36,12.70
2010,05,22,10,37,12.70
2010,05,22,10,38,12.70
2010,05,22,10,39,12.70
2010,05,22,10,40,12.60
2010,05,22,10,41,12.60
2010,05,22,10,42,12.70
2010,05,22,10,43,12.70
2010,05,22,10,44,12.60
2010,05,22,10,45,12.60
2010,05,22,10,46,12.50
2010,05,22,10,47,12.50
2010,05,22,10,48,12.40
2010,05,22,10,49,12.30
2010,05,22,10,50,12.30
2010,05,22,10,51,12.20
2010,05,22,10,52,12.20
2010,05,22,10,53,12.20
2010,05,22,10,54,12.20
2010,05,22,10,55,12.20
2010,05,22,10,56,12.10
2010,05,22,10,57,12.10
2010,05,22,10,58,12.10
2010,05,22,10,59,12.10
2010,05,22,11,00,12.10
2010,05,22,11,01,12.10
2010,05,22,11,02,12.10
2010,05,22,11,03,12.10
2010,05,22,11,04,12.10
2010,05,22,11,05,12.20
2010,05,22,11,06,12.20
2010,05,22,11,07,12.30
2010,05,22,11,08,12.40
2010,05,22,11,09,12.50
2010,05,22,11,10,12.60
2010,05,22,11,11,12.70
2010,05,22,11,12,12.90
2010,05,22,11,13,12.90
2010,05,22,11,14,13.00
2010,05,22,11,15,13.10
2010,05,22,11,16,13.10
2010,05,22,11,17,13.20
2010,05,22,11,18,13.20
2010,05,22,11,19,13.20
2010,05,22,11,20,13.00
2010,05,22,11,21,13.00
2010,05,22,11,22,12.90
2010,05,22,11,23,12.90
2010,05,22,11,24,12.80
2010,05,22,11,25,12.80
2010,05,22,11,26,12.80
2010,05,22,11,27,12.80
2010,05,22,11,28,12.80
2010,05,22,11,29,12.70
2010,05,22,11,30,12.60
2010,05,22,11,31,12.50
2010,05,22,11,32,12.40
2010,05,22,11,33,12.30
2010,05,22,11,34,12.30
2010,05,22,11,35,12.30
2010,05,22,11,36,12.20
2010,05,22,11,37,12.20
2010,05,22,11,38,12.20
2010,05,22,11,39,12.30
2010,05,22,11,40,12.30
2010,05,22,11,41,12.40
2010,05,22,11,42,12.50
2010,05,22,11,43,12.60
2010,05,22,11,44,12.60
2010,05,22,11,45,12.70
2010,05,22,11,46,12.60
2010,05,22,11,47,12.60
2010,05,22,11,48,12.50
2010,05,22,11,49,12.50
2010,05,22,11,50,12.30
2010,05,22,11,51,12.30
2010,05,22,11,52,12.20
2010,05,22,11,53,12.20
2010,05,22,11,54,12.10
2010,05,22,11,55,12.10
2010,05,22,11,56,12.00
2010,05,22,11,57,12.00
2010,05,22,11,58,11.90
2010,05,22,11,59,11.90
2010,05,22,12,00,11.80
2010,05,22,12,01,11.80
2010,05,22,12,02,11.80
2010,05,22,12,03,11.90
2010,05,22,12,04,12.00
2010,05,22,12,05,12.10
2010,05,22,12,06,12.20
2010,05,22,12,07,12.30
2010,05,22,12,08,12.30
2010,05,22,12,09,12.40
2010,05,22,12,10,12.50
2010,05,22,12,11,12.60
2010,05,22,12,12,12.60
2010,05,22,12,13,12.70
2010,05,22,12,14,12.70
2010,05,22,12,15,12.70
2010,05,22,12,16,12.70
2010,05,22,12,17,12.70
2010,05,22,12,18,12.70
2010,05,22,12,19,12.60
2010,05,22,12,20,12.60
2010,05,22,12,21,12.60
2010,05,22,12,22,12.60
2010,05,22,12,23,12.70
2010,05,22,12,24,12.60
2010,05,22,12,25,12.50
2010,05,22,12,26,12.40
2010,05,22,12,27,12.40
2010,05,22,12,28,12.40
2010,05,22,12,29,12.40
2010,05,22,12,30,12.40
2010,05,22,12,31,12.30
2010,05,22,12,32,12.30
2010,05,22,12,33,12.30
2010,05,22,12,34,12.30
2010,05,22,12,35,12.20
2010,05,22,12,36,12.10
2010,05,22,12,37,11.90
2010,05,22,12,38,11.70
2010,05,22,12,39,11.50
2010,05,22,12,40,11.40
2010,05,22,12,41,11.20
2010,05,22,12,42,11.10
2010,05,22,12,43,10.90
2010,05,22,12,44,10.80
2010,05,22,12,45,10.70
2010,05,22,12,46,10.60
2010,05,22,12,47,10.50
2010,05,22,12,48,10.40
2010,05,22,12,49,10.30
2010,05,22,12,50,10.30
2010,05,22,12,51,10.20
2010,05,22,12,52,10.20
2010,05,22,12,53,10.10
2010,05,22,12,54,10.00
2010,05,22,12,55,9.90
2010,05,22,12,56,9.90
2010,05,22,12,57,9.90
2010,05,22,12,58,9.90
2010,05,22,12,59,9.90
2010,05,22,13,00,9.90
2010,05,22,13,01,9.90
2010,05,22,13,02,10.00
2010,05,22,13,03,10.10
2010,05,22,13,04,9.90
2010,05,22,13,05,9.90
2010,05,22,13,06,9.90
2010,05,22,13,07,9.90
2010,05,22,13,08,9.80
2010,05,22,13,09,9.80
2010,05,22,13,10,9.80
2010,05,22,13,11,9.90
2010,05,22,13,12,9.80
2010,05,22,13,13,9.90
2010,05,22,13,14,9.90
2010,05,22,13,15,9.90
2010,05,22,13,16,9.90
2010,05,22,13,17,9.90
2010,05,22,13,18,9.90
2010,05,22,13,19,9.90
2010,05,22,13,20,9.90
2010,05,22,13,21,9.90
2010,05,22,13,22,9.90
2010,05,22,13,23,10.00
2010,05,22,13,24,10.10
2010,05,22,13,25,10.00
2010,05,22,13,26,10.00
2010,05,22,13,27,10.10
2010,05,22,13,28,10.10
2010,05,22,13,29,10.10
2010,05,22,13,30,10.10
2010,05,22,13,31,10.10
2010,05,22,13,32,10.10
2010,05,22,13,33,10.10
2010,05,22,13,34,10.10
2010,05,22,13,35,10.10
2010,05,22,13,36,10.10
2010,05,22,13,37,10.10
2010,05,22,13,38,10.10
2010,05,22,13,39,10.10
2010,05,22,13,40,10.10
2010,05,22,13,41,10.10
2010,05,22,13,42,10.20
2010,05,22,13,43,10.30
2010,05,22,13,44,10.40
2010,05,22,13,45,10.40
2010,05,22,13,46,10.40
2010,05,22,13,47,10.40
2010,05,22,13,48,10.40
2010,05,22,13,49,10.40
2010,05,22,13,50,10.40
2010,05,22,13,51,10.40
2010,05,22,13,52,10.40
2010,05,22,13,53,10.40
2010,05,22,13,54,10.40
2010,05,22,13,55,10.40
2010,05,22,13,56,10.40
2010,05,22,13,57,10.40
2010,05,22,13,58,10.40
2010,05,22,13,59,10.40
2010,05,22,14,00,10.50
2010,05,22,14,01,10.60
2010,05,22,14,02,10.40
2010,05,22,14,03,10.40
2010,05,22,14,04,10.40
2010,05,22,14,05,10.40
2010,05,22,14,06,10.60
2010,05,22,14,07,10.60
2010,05,22,14,08,10.60
2010,05,22,14,09,10.60
2010,05,22,14,10,10.70
2010,05,22,14,11,10.70
2010,05,22,14,12,10.70
2010,05,22,14,13,10.70
2010,05,22,14,14,10.70
2010,05,22,14,15,10.70
2010,05,22,14,16,10.60
2010,05,22,14,17,10.70
2010,05,22,14,18,10.60
2010,05,22,14,19,10.70
2010,05,22,14,20,10.70
2010,05,22,14,21,10.80
2010,05,22,14,22,10.80
2010,05,22,14,23,10.90
2010,05,22,14,24,11.10
2010,05,22,14,25,11.00
2010,05,22,14,26,10.90
2010,05,22,14,27,10.90
2010,05,22,14,28,10.90
2010,05,22,14,29,10.90
2010,05,22,14,30,11.00
2010,05,22,14,31,11.10
2010,05,22,14,32,11.10
2010,05,22,14,33,11.10
2010,05,22,14,34,11.20
2010,05,22,14,35,11.20
2010,05,22,14,36,11.30
2010,05,22,14,37,11.40
2010,05,22,14,38,11.60
2010,05,22,14,39,11.60
2010,05,22,14,40,11.70
2010,05,22,14,41,11.80
2010,05,22,14,42,11.90
2010,05,22,14,43,12.00
2010,05,22,14,44,12.00
2010,05,22,14,45,12.20
2010,05,22,14,46,12.20
2010,05,22,14,47,12.30
2010,05,22,14,48,12.40
2010,05,22,14,49,12.50
2010,05,22,14,50,12.50
2010,05,22,14,51,12.50
2010,05,22,14,52,12.60
2010,05,22,14,53,12.60
2010,05,22,14,54,12.60
2010,05,22,14,55,12.60
2010,05,22,14,56,12.70
2010,05,22,14,57,12.60
2010,05,22,14,58,12.60
2010,05,22,14,59,12.60
2010,05,22,15,00,12.70
2010,05,22,15,01,12.80
2010,05,22,15,02,12.80
2010,05,22,15,03,12.80
2010,05,22,15,04,12.80
2010,05,22,15,05,12.70
2010,05,22,15,06,12.70
2010,05,22,15,07,12.70
2010,05,22,15,08,12.70
2010,05,22,15,09,12.80
2010,05,22,15,10,12.80
2010,05,22,15,11,12.80
2010,05,22,15,12,12.90
2010,05,22,15,13,12.90
2010,05,22,15,14,12.90
2010,05,22,15,15,13.00
2010,05,22,15,16,13.10
2010,05,22,15,17,13.10
2010,05,22,15,18,13.20
2010,05,22,15,19,13.10
2010,05,22,15,20,13.10
2010,05,22,15,21,13.10
2010,05,22,15,22,13.10
2010,05,22,15,23,13.00
2010,05,22,15,24,13.00
2010,05,22,15,25,13.00
2010,05,22,15,26,13.00
2010,05,22,15,27,13.00
2010,05,22,15,28,13.00
2010,05,22,15,29,13.00
2010,05,22,15,30,13.00
2010,05,22,15,31,12.90
2010,05,22,15,32,12.90
2010,05,22,15,33,13.00
2010,05,22,15,34,13.10
2010,05,22,15,35,13.10
2010,05,22,15,36,13.10
2010,05,22,15,37,13.20
2010,05,22,15,38,13.30
2010,05,22,15,39,13.30
2010,05,22,15,40,13.30
2010,05,22,15,41,13.40
2010,05,22,15,42,13.50
2010,05,22,15,43,13.60
2010,05,22,15,44,13.60
2010,05,22,15,45,13.60
2010,05,22,15,46,13.70
2010,05,22,15,47,13.70
2010,05,22,15,48,13.70
2010,05,22,15,49,13.70
2010,05,22,15,50,13.70
2010,05,22,15,51,13.70
2010,05,22,15,52,13.70
2010,05,22,15,53,13.70
2010,05,22,15,54,13.70
2010,05,22,15,55,13.70
2010,05,22,15,56,13.70
2010,05,22,15,57,13.70
2010,05,22,15,58,13.70
2010,05,22,15,59,13.70
2010,05,22,16,00,13.70
2010,05,22,16,01,13.70
2010,05,22,16,02,13.70
2010,05,22,16,03,13.70
2010,05,22,16,04,13.70
2010,05,22,16,05,13.60
2010,05,22,16,06,13.60
2010,05,22,16,07,13.50
2010,05,22,16,08,13.50
2010,05,22,16,09,13.50
2010,05,22,16,10,13.50
2010,05,22,16,11,13.30
2010,05,22,16,12,13.30
2010,05,22,16,13,13.30
2010,05,22,16,14,13.30
2010,05,22,16,15,13.30
2010,05,22,16,16,13.30
2010,05,22,16,17,13.30
2010,05,22,16,18,13.30
2010,05,22,16,19,13.30
2010,05,22,16,20,13.20
2010,05,22,16,21,13.20
2010,05,22,16,22,13.20
2010,05,22,16,23,13.30
2010,05,22,16,24,13.30
2010,05,22,16,25,13.20
2010,05,22,16,26,13.10
2010,05,22,16,27,13.10
2010,05,22,16,28,13.10
2010,05,22,16,29,13.10
2010,05,22,16,30,13.10
2010,05,22,16,31,13.00
2010,05,22,16,32,13.10
2010,05,22,16,33,13.10
2010,05,22,16,34,13.10
2010,05,22,16,35,13.00
2010,05,22,16,36,13.00
2010,05,22,16,37,13.00
2010,05,22,16,38,13.00
2010,05,22,16,39,12.90
2010,05,22,16,40,12.90
2010,05,22,16,41,12.80
2010,05,22,16,42,12.80
2010,05,22,16,43,12.80
2010,05,22,16,44,12.80
2010,05,22,16,45,12.80
2010,05,22,16,46,12.80
2010,05,22,16,47,12.80
2010,05,22,16,48,12.80
2010,05,22,16,49,12.80
2010,05,22,16,50,12.70
2010,05,22,16,51,12.70
2010,05,22,16,52,12.60
2010,05,22,16,53,12.60
2010,05,22,16,54,12.60
2010,05,22,16,55,12.50
2010,05,22,16,56,12.50
2010,05,22,16,57,12.50
2010,05,22,16,58,12.40
2010,05,22,16,59,12.40
2010,05,22,17,00,12.50
2010,05,22,17,01,12.50
2010,05,22,17,02,12.40
2010,05,22,17,03,12.40
2010,05,22,17,04,12.40
2010,05,22,17,05,12.40
2010,05,22,17,06,12.40
2010,05,22,17,07,12.40
2010,05,22,17,08,12.40
2010,05,22,17,09,12.40
2010,05,22,17,10,12.40
2010,05,22,17,11,12.40
2010,05,22,17,12,12.40
2010,05,22,17,13,12.40
2010,05,22,17,14,12.40
2010,05,22,17,15,12.40
2010,05,22,17,16,12.40
2010,05,22,17,17,12.40
2010,05,22,17,18,12.40
2010,05,22,17,19,12.40
2010,05,22,17,20,12.30
2010,05,22,17,21,12.30
2010,05,22,17,22,12.30
2010,05,22,17,23,12.20
2010,05,22,17,24,12.20
2010,05,22,17,25,12.20
2010,05,22,17,26,12.20
2010,05,22,17,27,12.20
2010,05,22,17,28,12.20
2010,05,22,17,29,12.20
2010,05,22,17,30,12.20
2010,05,22,17,31,12.20
2010,05,22,17,32,12.20
2010,05,22,17,33,12.20
2010,05,22,17,34,12.20
2010,05,22,17,35,12.30
2010,05,22,17,36,12.30
2010,05,22,17,37,12.30
2010,05,22,17,38,12.20
2010,05,22,17,39,12.20
2010,05,22,17,40,12.20
2010,05,22,17,41,12.20
2010,05,22,17,42,12.20
2010,05,22,17,43,12.30